Date,TemperatureHighF,TemperatureAvgF,TemperatureLowF,DewpointHighF,DewpointAvgF,DewpointLowF,HumidityHigh,HumidityAvg,HumidityLow,PressureMaxIn,PressureMinIn,WindSpeedMaxMPH,WindSpeedAvgMPH,GustSpeedMaxMPH,PrecipitationSumIn
2013-5-1,80.0,69.7,60.1,64.8,59.0,55.3,86,70,52,30.09,29.98,12,1,12,0.00
2013-5-2,76.2,67.1,60.6,61.7,59.3,56.7,91,77,54,30.15,30.01,10,0,10,0.02
2013-5-3,74.7,62.3,43.3,62.1,55.4,41.4,94,80,55,30.02,29.75,16,2,20,0.83
2013-5-4,52.1,46.4,42.3,45.0,41.9,39.8,95,85,65,29.99,29.86,8,1,9,0.01
2013-5-5,60.8,52.8,45.4,54.0,48.1,42.4,94,84,69,29.97,29.83,8,0,11,0.01
2013-5-6,64.6,57.5,53.1,57.1,54.2,50.1,95,89,74,29.93,29.82,11,1,11,0.02
2013-5-7,74.0,63.1,54.3,60.2,56.9,53.2,96,82,57,30.01,29.92,7,0,7,0.01
2013-5-8,81.5,68.7,56.0,61.7,57.4,54.4,95,70,41,30.05,29.95,7,0,7,0.00
2013-5-9,81.7,71.9,62.5,64.3,61.1,58.6,94,70,50,30.04,29.91,20,1,20,0.00
2013-5-10,78.5,68.5,62.4,65.9,62.7,58.8,95,83,60,29.94,29.82,9,0,9,0.50
2013-5-11,72.1,61.4,55.6,58.7,52.5,40.3,94,74,50,30.11,29.94,14,1,14,0.02
2013-5-12,63.7,56.2,46.1,42.1,35.9,28.3,74,48,30,30.22,30.11,13,1,13,0.00
2013-5-13,70.8,59.6,46.9,52.7,42.4,32.5,92,58,28,30.26,30.13,7,0,8,0.00
2013-5-14,87.8,72.3,56.3,61.0,55.3,46.1,81,57,36,30.13,29.91,16,1,17,0.00
2013-5-15,87.1,76.0,65.3,60.8,57.3,52.8,71,53,34,30.03,29.90,12,1,14,0.00
2013-5-16,83.8,73.4,66.7,64.7,60.4,55.6,82,64,47,29.99,29.89,11,0,13,0.04
2013-5-17,69.7,67.1,64.8,65.7,63.8,59.4,95,89,76,29.99,29.92,11,2,11,0.27
2013-5-18,79.5,71.6,66.6,70.2,66.8,64.7,97,86,64,30.00,29.91,4,0,4,0.00
2013-5-19,90.5,78.3,70.0,75.4,70.8,66.8,96,79,52,29.93,29.83,11,1,12,0.00
2013-5-20,88.0,78.5,69.9,72.4,70.1,67.3,92,76,56,29.95,29.80,14,1,15,0.00
2013-5-21,80.1,70.5,65.6,70.1,66.2,63.3,95,87,67,29.93,29.78,17,1,20,1.50
2013-5-22,80.5,69.9,63.4,66.7,63.1,59.3,96,80,52,29.83,29.73,13,1,13,0.21
2013-5-23,75.5,68.0,57.8,62.2,57.5,50.8,89,70,52,30.14,29.83,14,1,16,0.00
2013-5-24,71.0,60.9,50.9,52.9,48.1,42.5,86,65,39,30.35,30.14,10,2,12,0.00
2013-5-25,76.2,66.0,54.5,59.2,51.4,46.1,82,61,40,30.35,30.14,8,1,8,0.00
2013-5-26,80.9,71.0,62.7,64.5,58.4,51.9,83,65,48,30.21,30.07,8,1,9,0.00
2013-5-27,86.5,75.3,62.1,65.8,61.3,55.8,85,63,41,30.08,29.91,15,1,17,0.00
2013-5-28,88.3,78.7,69.9,69.4,64.2,56.1,82,63,44,30.02,29.92,16,1,21,0.00
2013-5-29,87.3,78.0,66.6,69.2,64.2,57.3,81,64,49,30.06,29.92,13,1,13,0.00
2013-5-30,85.0,77.5,68.1,73.1,68.6,65.0,94,75,59,30.03,29.90,23,2,23,0.68
2013-5-31,79.7,74.0,68.9,74.1,70.1,66.3,95,88,80,29.98,29.84,17,2,20,0.54